Content
SEND FEEDBACK

Daily
Averages
Monthly
Summary
United States of America

UPI, GUAM


Home > North America > United States > Guam
Elevation: 53 feet     Latitude: 13 34N     Longitude: 144 55E

WEATHER
 
SELECT A DAY
Number of Records: 213,129;   Date Range: 1/1/95 - 10/1/14
 
SHARE

PRINT THIS DATA

[ ← Previous Day ]
WEATHER ALMANAC - JULY 1, 2013
[ Next Day → ]
[ °C ]   °F
We're sorry. There is no daily almanac available for Upi, Guam on July 1, 2013.
WEATHER BY HOUR - JULY 1, 2013
[ °C ]   °F
Local TimeTemperatureDewpointHumidityBarometerVisibilityWind DirectionWind SpeedGust SpeedPrecipitationEventsConditions
12:25 AM78.8 °F75.2 °F89 %29.90 in5.0 miCalm0.08 inRainLight Rain
12:41 AM78.8 °F75.2 °F89 %29.89 in5.0 miSW (230°)5.8 mph0.08 inMostly Cloudy
12:54 AM78.1 °F75.0 °F90 %29.86 in5.0 miCalm0.08 inScattered Clouds
1:54 AM79.0 °F75.0 °F88 %29.84 in10.0 miESE (120°)4.6 mphClear
2:54 AM79.0 °F75.0 °F88 %29.83 in10.0 miCalmClear
3:54 AM79.0 °F75.0 °F88 %29.84 in10.0 miCalmPartly Cloudy
4:54 AM79.0 °F75.0 °F88 %29.83 in10.0 miEast (90°)5.8 mphClear
5:54 AM80.1 °F77.0 °F90 %29.84 in10.0 miEast (100°)5.8 mph0.00 inPartly Cloudy
6:54 AM81.0 °F75.9 °F85 %29.85 in10.0 miESE (120°)3.5 mphPartly Cloudy
7:54 AM84.0 °F78.1 °F82 %29.85 in10.0 miEast (80°)5.8 mphClear
8:54 AM86.0 °F75.9 °F72 %29.86 in10.0 miEast (90°)11.5 mphPartly Cloudy
9:54 AM87.1 °F75.0 °F67 %29.86 in10.0 miEast (100°)11.5 mphScattered Clouds
10:54 AM87.1 °F75.9 °F69 %29.85 in10.0 miESE (110°)10.4 mph18.4 mphPartly Cloudy
11:54 AM87.1 °F75.9 °F69 %29.84 in10.0 miEast (90°)12.7 mphPartly Cloudy
12:09 PM87.8 °F77.0 °F70 %29.87 in10.0 miESE (110°)11.5 mph18.4 mphMostly Cloudy
12:37 PM87.8 °F77.0 °F70 %29.86 in10.0 miESE (110°)10.4 mphScattered Clouds
12:54 PM87.1 °F75.9 °F69 %29.83 in10.0 miESE (110°)8.1 mphScattered Clouds
1:54 PM87.1 °F75.9 °F69 %29.82 in10.0 miEast (100°)13.8 mph18.4 mphScattered Clouds
2:54 PM88.0 °F75.9 °F67 %29.81 in10.0 miESE (120°)10.4 mphPartly Cloudy
3:19 PM87.8 °F75.2 °F66 %29.82 in10.0 miEast (100°)10.4 mphMostly Cloudy
3:22 PM87.8 °F75.2 °F66 %29.82 in10.0 miESE (120°)10.4 mphScattered Clouds
3:54 PM87.1 °F75.0 °F67 %29.80 in10.0 miEast (100°)9.2 mphPartly Cloudy
4:54 PM86.0 °F75.9 °F72 %29.81 in10.0 miESE (110°)8.1 mphPartly Cloudy
5:54 PM86.0 °F75.9 °F72 %29.83 in10.0 miEast (80°)8.1 mphMostly Cloudy
6:54 PM82.9 °F75.0 °F77 %29.84 in10.0 miENE (60°)4.6 mphPartly Cloudy
7:54 PM82.9 °F73.9 °F74 %29.84 in10.0 miEast (100°)3.5 mphPartly Cloudy
8:54 PM82.9 °F75.0 °F77 %29.85 in10.0 miESE (110°)3.5 mphPartly Cloudy
9:54 PM82.9 °F75.9 °F79 %29.86 in10.0 miCalmPartly Cloudy
10:54 PM82.0 °F77.0 °F85 %29.86 in10.0 miNE (50°)4.6 mphPartly Cloudy
11:54 PM81.0 °F77.0 °F88 %29.86 in10.0 miNE (50°)4.6 mphPartly Cloudy
Hourly data recorded from PGUM, located miles away from Upi, Guam







STORIES FROM OUR PARTNERS